Regional Weather Roundup
Issued by NWS Cleveland, OH

Home | Current Version | Previous Version | Graphics & Text | Print | Product List | Glossary On
Versions: 1 2 3 4 5 6 7 8 9 10 11 12 13 14 15 16 17 18 19 20 21 22 23 24 25 26 27 28 29 30 31 32 33 34 35 36 37 38 39 40 41 42 43 44 45 46 47 48 49 50
000
ASUS41 KCLE 201510
RWRCLE
OHIO REGIONAL WEATHER ROUNDUP
NATIONAL WEATHER SERVICE CLEVELAND, OH
1100 AM EDT SAT SEP 20 2014

NOTE: "FAIR" INDICATES FEW OR NO CLOUDS BELOW 12,000 FEET WITH NO
SIGNIFICANT WEATHER AND/OR OBSTRUCTIONS TO VISIBILITY.

OHZ001>008-015>018-024>027-034-035-043-044-201600-
   NORTHWEST OHIO

CITY           SKY/WX    TMP DP  RH WIND       PRES   REMARKS
DEFIANCE       CLOUDY    69  58  67 SW10      30.00F
FINDLAY        CLOUDY    71  60  68 SW7       30.04R
TOLEDO EXPRESS CLOUDY    67  57  70 SW9       29.99F
TOLEDO EXEC    CLOUDY    69  57  65 SW13G20   30.00F
LIMA           PTSUNNY   72  60  66 SW10      30.05S
$$

OHZ009>014-019>023-028>033-038-089-201600-
   NORTHEAST OHIO

CITY           SKY/WX    TMP DP  RH WIND       PRES   REMARKS
CLE-HOPKINS    MOSUNNY   70  61  73 S13       30.06F
CLE-LAKEFRONT  MOSUNNY   72  60  66 S14       30.03F
CUY CO. ARPT   PTSUNNY   70  63  78 S14       30.06S
LORAIN-ELYRIA  MOSUNNY   74  61  63 SW13      30.05F
ASHTABULA      PTSUNNY   67  60  78 SW12G21   30.08S
AKRON-CANTON   PTSUNNY   71  59  65 SW13      30.09F
WOOSTER        MOSUNNY   69  60  73 S13       30.09F
MANSFIELD      MOSUNNY   71  62  73 S14       30.07F
YOUNGSTOWN     CLOUDY    69  60  73 S13       30.10F
$$

OHZ042-051>053-060>062-070>072-077>081-201600-
  SOUTHWEST OHIO

CITY           SKY/WX    TMP DP  RH WIND       PRES   REMARKS
CINC-COVINGTON MOSUNNY   72  64  76 SW9G18    30.10S
CINC-LUNKEN    MOSUNNY   75  64  68 SW15G22   30.10F
HAMILTON       MOSUNNY   75  65  70 SW10G16   30.09F
DAYTON         PTSUNNY   71  62  73 SW14      30.08F
WRIGHT-PAT AFB SUNNY     73  63  72 SW16G23   30.07F
DAYTON GENERAL MOSUNNY   71  64  78 SW12G22   30.08F
WILMINGTON     MOSUNNY   73  63  70 SW15      30.09F
$$

OHZ036-037-039>041-045>050-054>059-063>069-073>076-082>088-201600-
  CENTRAL AND SOUTHEAST OHIO

CITY           SKY/WX    TMP DP  RH WIND       PRES   REMARKS
COLUMBUS       PTSUNNY   73  61  65 SW12G20   30.09S
OSU AIRPORT    MOSUNNY   71  62  73 S13       30.08F
BOLTON FIELD   MOSUNNY   72  64  78 SW12G22   30.09F
RICKENBACK AFB MOSUNNY   73  61  67 SW21G26   30.08F
NEWARK         MOSUNNY   73  61  65 SW10      30.09F
MARION         MOSUNNY   71  60  68 SW13      30.07S
LANCASTER      SUNNY     75  61  61 SW16G22   30.10F
ZANESVILLE     SUNNY     72  58  61 SW13G21   30.12S
NEW PHILLY     MOSUNNY   71  60  68 S8        30.11F
$$


USA.gov is the U.S. government's official web portal to all federal, state and local government web resources and services.